[Iaude] MPEC M72: 2011 MV [a=1.32,e=0.19,i=41.1,H=21.4]

mpec at marsden.cfa.harvard.edu mpec at marsden.cfa.harvard.edu
Mon Jun 22 16:57:29 EDT 2020


M.P.E.C. 2020-M72                                 Issued 2020 June 22, 20:55 UT

     The Minor Planet Electronic Circulars contain information on unusual
         minor planets and routine data on comets.  They are published
    on behalf of Division F of the International Astronomical Union by the
          Minor Planet Center, Smithsonian Astrophysical Observatory,
                          Cambridge, MA 02138, U.S.A.

             Prepared using the Tamkin Foundation Computer Network

                              MPC at CFA.HARVARD.EDU
            URL https://www.minorplanetcenter.net/    ISSN 1523-6714

                                    2011 MV                                     


                           Revision to MPEC 2011-M35                            

Additional Observations:
     K11M00V  C2011 06 02.60126918 28 39.330+16 17 13.72         21.8 GVEM072F51
     K11M00V  C2011 06 07.54613118 12 24.924+11 36 04.06         21.9 GVEM072F51
     K11M00V  C2011 06 07.56061218 12 21.820+11 35 09.88         21.8 GVEM072F51
     K11M00V  C2014 06 18.44106416 55 12.207+07 12 07.15         21.2 GVEM072F51
     K11M00V  C2014 06 18.45302516 55 09.615+07 11 10.92         21.4 GVEM072F51
     K11M00V  C2014 06 18.47803516 55 04.155+07 09 12.98         21.7 GVEM072F51
     K11M00V  C2014 06 30.37347816 18 40.410-07 59 07.10         21.0 GVEM072F51
     K11M00V  C2014 06 30.38486916 18 38.598-07 59 55.24         21.3 GVEM072F51
     K11M00V  C2014 06 30.39627216 18 36.785-08 00 43.42         21.4 GVEM072F51
     K11M00V  C2014 06 30.40761016 18 34.991-08 01 31.13         21.2 GVEM072F51
     K11M00V  C2014 07 02.32237416 13 55.325-10 13 40.99         21.7 GVEM072F51
     K11M00V  C2014 07 02.34761816 13 51.578-10 15 23.65         21.7 GVEM072F51
     K11M00V  C2014 07 02.34828216 13 51.488-10 15 25.89         21.5 GVEM072F51
     K11M00V  C2014 07 02.36019916 13 49.728-10 16 14.23         21.8 GVEM072F51
     K11M00V  C2014 07 02.36085816 13 49.628-10 16 16.93         21.5 GVEM072F51
     K11M00V  C2014 07 04.32742416 09 24.876-12 25 53.42         21.5 GVEM072F51
     K11M00V  C2014 07 04.32940616 09 24.605-12 26 01.05         22.1 GVEM072F51
     K11M00V  C2014 07 04.34237816 09 22.824-12 26 51.02         21.9 GVEM072F51
     K11M00V  C2017 06 25.35220516 00 51.769+05 44 19.27         21.5 GVEM072F51
     K11M00V  C2017 06 25.36496016 00 49.870+05 43 19.09         21.1 GVEM072F51
     K11M00V  C2017 06 25.37767116 00 47.971+05 42 18.89         21.4 GVEM072F51
     K11M00V  C2017 07 15.33885915 32 05.422-16 09 48.71         22.4 GVEM072F51
     K11M00V  C2017 07 15.35078115 32 04.900-16 10 24.90         22.5 GVEM072F51
     K11M00V  C2017 07 15.36480815 32 04.323-16 11 07.27         21.4 GVEM072F51
     K11M00V  C2020 05 24.47646617 13 26.902+48 29 09.41         22.2 GVEM072F51
     K11M00V  C2020 05 24.50231517 13 20.015+48 28 07.86         21.0 GVEM072F51
     K11M00V  C2020 05 24.51525317 13 16.578+48 27 37.43         22.2 GVEM072F51
     K11M00V  C2020 06 03.53352716 32 13.757+40 02 17.73               VEM072F51
     K11M00V  C2020 06 07.56927816 17 32.926+35 37 33.19         21.9 GVEM072F51
     K11M00V  C2020 06 07.58095316 17 30.475+35 36 43.92         21.7 GVEM072F51
     K11M00V  C2020 06 19.39183515 43 36.703+20 25 25.51         21.2 GVEM072F51
     K11M00V  C2020 06 19.40393515 43 35.014+20 24 26.56         22.3 GVEM072F51
     K11M00V  C2020 06 19.42826515 43 31.530+20 22 26.55         21.2 GVEM072F51
     K11M00V  C2020 06 22.39307315 37 15.920+16 21 00.50         22.06wUEM072F51
     K11M00V  C2020 06 22.41747315 37 12.879+16 19 01.38         21.55wUEM072F51
     K11M00V  C2020 06 22.42975615 37 11.358+16 18 01.76         21.93wUEM072F51

Observer details:
F51 Pan-STARRS 1, Haleakala.  Observers J. Bulger, K. Chambers, T. Lowe, A.
    Schultz, M. Willman.  Measurers S. Chastel, M. Huber, Y. Ramanjooloo, R.
    Wainscoat, R. Weryk, K. Chambers, T. de Boer, L. Denneau, J. Fairlamb, H.
    Flewelling, C.-C. Lin, E. Magnier.  1.8-m Ritchey-Chretien + CCD.

First and last observations above in comparison with prediction:
Residuals in seconds of arc (or two decimals in degrees), reference and Delta-T
110602 F51 0.00+ 0.00+    200622 F51 9.64+ 8.31+    MPO200963   +9.37 days

Orbital elements:
2011 MV                                                  Earth MOID = 0.1419 AU
Epoch 2020 May 31.0 TT = JDT 2459000.5                  Veres
M  77.30767              (2000.0)            P               Q
n   0.65327569     Peri.   48.83116     -0.59929943     -0.45753185
a   1.3154420      Node    92.87110     +0.38019951     -0.88479868
e   0.1890831      Incl.   41.12590     +0.70447749     +0.08829444
P   1.51           H   21.4           G   0.15           U   3
Residuals in seconds of arc
110602 F51  0.1-  0.2-    110625 H01  0.3-  0.1-    140704 F51  0.2+  0.1-
110607 F51  0.1-  0.0     110625 H01  0.0   0.0     140704 F51  0.1-  0.1-
110607 F51  0.0   0.1-    110625 H01  0.2+  0.1+    170625 F51  0.0   0.0
110623 G96  0.2-  0.2-    110629 291  0.6-  0.8-    170625 F51  0.0   0.1+
110623 G96  0.2-  0.2-    110629 291  0.4+  0.4+    170625 F51  0.1-  0.1-
110623 G96  0.6-  0.7-    110702 807  0.2+  0.1-    170715 F51  0.1+  0.1-
110623 G96  0.6-  0.3+    110702 807  0.1-  0.0     170715 F51  0.3-  0.1+
110623 G96  0.1+  1.1-    140618 F51  0.1-  0.2-    170715 F51  0.2-  0.5+
110623 G96  0.8-  0.6-    140618 F51  0.2+  0.0     200524 F51  0.1+  0.3+
110623 291 (1.0+  3.0+)   140618 F51  0.1+  0.1-    200524 F51  0.1+  0.3-
110623 291  0.2-  0.0     140630 F51  0.1-  0.1-    200524 F51  0.1+  0.0
110623 291  0.1+  0.4+    140630 F51  0.0   0.1-    200603 F51  0.3+  0.1-
110623 J95  0.6+  1.1+    140630 F51  0.0   0.1-    200607 F51  0.2-  0.1+
110624 J95 (2.0+  0.8+)   140630 F51  0.1+  0.1+    200607 F51  0.0   0.2+
110624 291  0.0   1.3+    140702 F51  0.0   0.1-    200619 F51  0.4-  0.1-
110624 291  0.7-  0.1-    140702 F51  0.1-  0.5-    200619 F51  0.2+  0.3+
110625 291  0.4-  1.0+    140702 F51  0.0   0.1-    200619 F51  0.0   0.4-
110625 291  1.3+  1.5+    140702 F51  0.0   0.2-    200622 F51  0.0   0.1-
110625 291  0.6+  0.8+    140702 F51  0.0   0.2-    200622 F51  0.1-  0.1-
110625 H01  0.2+  0.0     140704 F51  0.2+  0.1-    200622 F51  0.1-  0.3+

Ephemeris:
2011 MV                  a,e,i = 1.32, 0.19, 41                  q = 1.0667
Date    TT    R. A. (2000) Decl.     Delta      r    Elong.  Phase     V
2020 05 23    17 19 46.1 +49 24 37   0.5391  1.2844   107.8    48.6    22.4
...
2020 06 07    16 19 33.4 +36 16 51   0.4858  1.3272   120.2    41.4    22.1
...
2020 06 15    15 54 34.0 +26 19 57   0.4808  1.3494   124.8    38.2    22.0
...
2020 06 21    15 40 06.4 +18 14 25   0.4914  1.3656   126.3    36.9    22.0
2020 06 22    15 38 03.2 +16 53 02   0.4944  1.3683   126.3    36.8    22.0
2020 06 23    15 36 06.0 +15 31 55   0.4977  1.3709   126.3    36.7    22.1
...
2020 06 29    15 26 23.4 +07 38 05   0.5252  1.3866   125.1    36.9    22.2
...
2020 07 07    15 18 16.7 -01 53 31   0.5791  1.4068   121.2    38.2    22.5
...
2020 07 22    15 14 56.1 -15 51 04   0.7199  1.4421   111.2    41.1    23.1

A. U. Tomatic                (C) Copyright 2020 MPC           M.P.E.C. 2020-M72




More information about the Iaude mailing list